Orbital Elements at Epoch 2459200.5 (2020-Dec-17.0) TDB
Reference: JPL 30 (heliocentric ecliptic J2000)
Element | Value | Uncertainty (1-sigma) | Units |
e | .1433990258774795 | 4.4522e-08 | |
a | 2.697023629448952 | 1.3906e-08 | au |
q | 2.310273068217428 | 1.2211e-07 | au |
i | 9.861798408637979 | 3.9599e-06 | deg |
node | 84.78314661950891 | 2.8773e-05 | deg |
peri | 268.7228244149 | 3.2163e-05 | deg |
M | 252.2312138507273 | 1.788e-05 | deg |
tp | 2459684.801756866342 (2022-Apr-15.30175687) | 8.2034e-05 | TDB |
period | 1617.802693169331 4.43 | 1.2512e-05 3.426e-08 | d yr |
n | .2225240454351992 | 1.721e-09 | deg/d |
Q | 3.083774190680476 | 1.59e-08 | au |
|
| | Orbit Determination Parameters
Additional Information
|